Regional Weather Roundup
Issued by NWS Sioux Falls, SD

Home | Current Version | Previous Version | Text Only | Print | Product List | Glossary Off
Versions: 1 2 3 4 5 6 7 8 9 10 11 12 13 14 15 16 17 18 19 20 21 22 23 24 25 26 27 28 29 30 31 32 33 34 35 36 37 38 39 40 41 42 43 44 45 46 47 48 49 50

000
ASUS43 KFSD 110910
RWRFSD

WEATHER ROUNDUP FOR SE SOUTH DAKOTA/SW MINNESOTA/NW IOWA
NATIONAL WEATHER SERVICE SIOUX FALLS SD
400 AM CDT FRI JUL 11 2014

NOTE: "FAIR" INDICATES FEW OR NO CLOUDS BELOW 12,000 FEET WITH NO
SIGNIFICANT WEATHER AND OR OBSTRUCTIONS TO VISIBILITY.


SDZ038>040-050-052>070-111000-
SOUTHEAST SOUTH DAKOTA

CITY           SKY/WX    TMP DP  RH WIND       PRES   REMARKS
CHAMBERLAIN    PTCLDY    71  68  91 S10       29.86S
HURON          PTCLDY    73  66  78 S14G23    29.83R
MADISON        CLOUDY    68  68 100 S16G24    29.89R
MITCHELL       CLOUDY    72  68  87 S18G30    29.85F
SIOUX FALLS    LGT RAIN  70  67  90 S18G25    29.91F
WINNER         FAIR      74  63  68 S15       29.91R
YANKTON        CLOUDY    70  66  88 E7        29.96R
$$

MNZ071-072-080-081-089-090-097-098-111000-
SOUTHWEST MINNESOTA

CITY           SKY/WX    TMP DP  RH WIND       PRES   REMARKS
FAIRMONT       CLOUDY    70  57  64 S14       30.02S
JACKSON        LGT RAIN  66  61  82 S13G21    30.02S
LUVERNE        CLOUDY    70  66  88 S9        29.96F
MARSHALL       PTCLDY    72  64  78 SW25G33   29.86F
MONTEVIDEO     MOCLDY    72  66  83 SW16G23   29.86F
PIPESTONE      CLOUDY    70  66  88 S24G32    29.90F
REDWOOD FALLS  CLOUDY    70  64  81 S24       29.91S
TRACY          MOCLDY    70  66  88 S18G28    29.90F
WINDOM         LGT RAIN  68  63  83 S14G21    29.98F
WORTHINGTON    CLOUDY    66  64  94 S14G21    29.99F
$$

IAZ001>003-012>014-020>022-031-032-NEZ013-014-SDZ071-111000-
NORTHWEST IOWA

CITY           SKY/WX    TMP DP  RH WIND       PRES   REMARKS
CHEROKEE       CLOUDY    68  65  90 S5        30.02S
DENISON        CLOUDY    68  64  88 VRB6G12   30.01S
ESTHERVILLE    LGT RAIN  67  61  81 S12       30.04R
LE MARS        LGT RAIN  70  66  88 S8        30.00F
ORANGE CITY    LGT RAIN  72  66  83 S5        30.01F
SHELDON        LGT RAIN  68  66  94 S10       30.00F
SIOUX CITY     CLOUDY    71  66  84 SE8       29.98R
SPENCER        LGT RAIN  68  62  81 S8        30.03R
STORM LAKE     CLOUDY    66  64  94 SE8       30.04S
$$

ABBREVIATIONS USED IN REMARKS
   TC - TEMPERATURE IN CELSIUS
  WCI - WIND CHILL INDEX
   HX - HEAT INDEX
  VSB - VISIBILITY




USA.gov is the U.S. government's official web portal to all federal, state and local government web resources and services.